TimeCST,TemperatureF,Dew PointF,Humidity,Sea Level PressureIn,VisibilityMPH,Wind Direction,Wind SpeedMPH,Gust SpeedMPH,PrecipitationIn,Events,Conditions,WindDirDegrees,DateUTC
12:54 AM,23.0,15.1,72,30.04,10.0,South,3.5,-,N/A,,Clear,190,2013-02-24 06:54:00
1:54 AM,23.0,16.0,74,30.05,10.0,SSE,5.8,-,N/A,,Clear,160,2013-02-24 07:54:00
2:54 AM,23.0,16.0,74,30.04,10.0,SSE,4.6,-,N/A,,Clear,160,2013-02-24 08:54:00
3:54 AM,21.9,16.0,78,30.03,10.0,SSE,4.6,-,N/A,,Clear,150,2013-02-24 09:54:00
4:54 AM,24.1,17.1,75,30.05,10.0,SSE,3.5,-,N/A,,Clear,160,2013-02-24 10:54:00
5:54 AM,21.9,17.1,82,30.07,9.0,SSE,5.8,-,N/A,,Clear,150,2013-02-24 11:54:00
6:54 AM,19.0,16.0,88,30.07,6.0,ESE,6.9,-,N/A,,Clear,110,2013-02-24 12:54:00
7:54 AM,21.0,17.1,85,30.09,7.0,ESE,5.8,-,N/A,,Clear,110,2013-02-24 13:54:00
8:54 AM,24.1,17.1,75,30.09,10.0,East,8.1,-,N/A,,Clear,100,2013-02-24 14:54:00
9:54 AM,30.9,19.9,64,30.10,10.0,SE,9.2,-,N/A,,Clear,130,2013-02-24 15:54:00
10:54 AM,36.0,21.0,55,30.10,10.0,SE,5.8,-,N/A,,Clear,130,2013-02-24 16:54:00
11:54 AM,39.9,21.0,47,30.09,10.0,SE,8.1,-,N/A,,Clear,140,2013-02-24 17:54:00
12:54 PM,42.1,21.0,43,30.06,10.0,SE,9.2,-,N/A,,Clear,130,2013-02-24 18:54:00
1:54 PM,44.1,21.0,40,30.04,10.0,SE,8.1,-,N/A,,Clear,130,2013-02-24 19:54:00
2:54 PM,46.0,21.0,37,30.02,10.0,ESE,8.1,-,N/A,,Clear,110,2013-02-24 20:54:00
3:54 PM,45.0,24.1,44,30.00,10.0,ESE,9.2,-,N/A,,Clear,110,2013-02-24 21:54:00
4:54 PM,46.0,21.9,39,29.99,10.0,East,10.4,-,N/A,,Clear,100,2013-02-24 22:54:00
5:54 PM,43.0,23.0,45,30.00,10.0,East,9.2,-,N/A,,Clear,90,2013-02-24 23:54:00
6:54 PM,41.0,24.1,51,30.01,10.0,East,8.1,-,N/A,,Clear,90,2013-02-25 00:54:00
7:54 PM,39.9,24.1,53,30.01,10.0,East,9.2,-,N/A,,Clear,90,2013-02-25 01:54:00
8:54 PM,36.0,24.1,62,30.01,10.0,East,9.2,-,N/A,,Clear,80,2013-02-25 02:54:00
9:54 PM,36.0,24.1,62,30.02,10.0,East,10.4,-,N/A,,Clear,90,2013-02-25 03:54:00
10:54 PM,36.0,25.0,64,30.01,10.0,East,10.4,-,N/A,,Clear,100,2013-02-25 04:54:00
11:54 PM,34.0,25.0,70,30.03,10.0,East,10.4,-,N/A,,Clear,100,2013-02-25 05:54:00